Location: College Park
(38.9810°N, 76.9370°W)
Time: 17:01:00
(UTC-05:00)

Hubble Space Telescope - Pass Details

Date: 05 January 2018
Orbit: 537 x 541 km, 28.5° (Epoch: 17 January)

Event Time Altitude Azimuth Distance (km) Brightness Sun altitude
Exits shadow 04:57:39 15° 163° (SSE) 1,513 3.3 -28.3°
Drops below altitude 10° 04:59:41 10° 134° (SE) 1,785 4.1 -27.9°
Sets 05:02:46 0° 110° (ESE) 2,676 5.5 -27.3°
